When you browse on this site, cookies collect data to enhance your experience and personalize the content and advertising you see.
Visit our Privacy Policy to learn more. By continuing to use the site, you agree to this use of cookies and data.
  • En España
  • Lista de países
  • Para 7 días
  • Temperatura del agua
  • El tiempo en el mapa
  • Informadores
  • user-avatar
    Iniciar sesión

    Tiempo cada hora Frankfurt am Mein

    Hoy, 6 Diciembre, Viernes

    Tiempo Temperatura Precipitaciones Viento Presión Humedad
    00:00 -4°C° 0 mm 2 mps 723 mmHg 70%
    01:00 -4°C° 0 mm 2 mps 723 mmHg 70%
    02:00 -4°C° 0 mm 2 mps 723 mmHg 70%
    03:00 -4°C° 0 mm 2 mps 722 mmHg 70%
    04:00 -4°C° 0 mm 2 mps 722 mmHg 70%
    05:00 -4°C° 0 mm 2 mps 722 mmHg 69%
    06:00 -4°C° 0 mm 2 mps 722 mmHg 69%
    07:00 -5°C° 0 mm 3 mps 722 mmHg 68%
    08:00 -4°C° 0 mm 3 mps 721 mmHg 66%
    09:00 -2°C° 0 mm 3 mps 721 mmHg 64%
    10:00 -2°C° 0 mm 3 mps 721 mmHg 62%
    11:00 -1°C° 0 mm 3 mps 721 mmHg 63%
    12:00 0°C° 0 mm 3 mps 720 mmHg 63%
    13:00 0°C° 0 mm 3 mps 720 mmHg 63%
    14:00 0°C° 0.3 mm 3 mps 719 mmHg 68%
    15:00 0°C° 0.3 mm 4 mps 719 mmHg 72%
    16:00 0°C° 0.3 mm 4 mps 718 mmHg 76%
    17:00 0°C° 0.6 mm 4 mps 718 mmHg 79%
    18:00 0°C° 0.6 mm 4 mps 717 mmHg 83%
    19:00 0°C° 0.6 mm 4 mps 717 mmHg 87%
    20:00 0°C° 1 mm 5 mps 717 mmHg 88%
    21:00 +1°C° 1 mm 5 mps 716 mmHg 89%
    22:00 +1°C° 1 mm 5 mps 716 mmHg 90%
    23:00 +1°C° 0.3 mm 5 mps 716 mmHg 90%

    Mañana, 7 Diciembre, Sábado

    Tiempo Temperatura Precipitaciones Viento Presión Humedad
    00:00 +2°C° 0.3 mm 5 mps 716 mmHg 91%
    01:00 +2°C° 0.3 mm 5 mps 716 mmHg 91%
    02:00 +3°C° 0.1 mm 5 mps 716 mmHg 89%
    03:00 +3°C° 0.1 mm 5 mps 716 mmHg 87%
    04:00 +3°C° 0.1 mm 5 mps 716 mmHg 86%
    05:00 +3°C° 0 mm 5 mps 716 mmHg 85%
    06:00 +3°C° 0 mm 5 mps 717 mmHg 85%
    07:00 +3°C° 0 mm 5 mps 718 mmHg 84%
    08:00 +3°C° 0 mm 5 mps 718 mmHg 84%
    09:00 +3°C° 0 mm 5 mps 719 mmHg 84%
    10:00 +3°C° 0 mm 5 mps 719 mmHg 84%
    11:00 +3°C° 0 mm 5 mps 719 mmHg 83%
    12:00 +5°C° 0 mm 5 mps 720 mmHg 81%
    13:00 +5°C° 0 mm 5 mps 720 mmHg 80%
    14:00 +5°C° 0 mm 4 mps 720 mmHg 81%
    15:00 +5°C° 0 mm 4 mps 720 mmHg 82%
    16:00 +4°C° 0 mm 4 mps 719 mmHg 83%
    17:00 +4°C° 0 mm 4 mps 720 mmHg 83%
    18:00 +4°C° 0 mm 4 mps 720 mmHg 83%
    19:00 +4°C° 0 mm 4 mps 721 mmHg 83%
    20:00 +4°C° 0 mm 4 mps 721 mmHg 84%
    21:00 +4°C° 0 mm 4 mps 721 mmHg 85%
    22:00 +4°C° 0 mm 4 mps 721 mmHg 85%
    23:00 +4°C° 0 mm 4 mps 720 mmHg 86%

    Pasado mañana, 8 Diciembre, Domingo

    Tiempo Temperatura Precipitaciones Viento Presión Humedad
    00:00 +4°C° 0 mm 4 mps 720 mmHg 86%
    01:00 +4°C° 0 mm 4 mps 720 mmHg 86%
    02:00 +3°C° 0 mm 4 mps 719 mmHg 86%
    03:00 +3°C° 0 mm 4 mps 719 mmHg 87%
    04:00 +1°C° 0 mm 4 mps 718 mmHg 87%
    05:00 +1°C° 0 mm 4 mps 717 mmHg 85%
    06:00 +3°C° 0 mm 4 mps 717 mmHg 84%
    07:00 +3°C° 0 mm 4 mps 716 mmHg 82%
    08:00 +2°C° 0.5 mm 5 mps 716 mmHg 84%
    09:00 +3°C° 0.5 mm 5 mps 716 mmHg 85%
    10:00 +4°C° 0.5 mm 6 mps 715 mmHg 87%
    11:00 +4°C° 0.3 mm 6 mps 715 mmHg 85%
    12:00 +5°C° 0.3 mm 6 mps 714 mmHg 84%
    13:00 +7°C° 0.3 mm 6 mps 714 mmHg 82%
    14:00 +7°C° 0 mm 6 mps 713 mmHg 83%
    15:00 +7°C° 0 mm 6 mps 713 mmHg 84%
    16:00 +7°C° 0 mm 6 mps 713 mmHg 85%
    17:00 +7°C° 0.1 mm 5 mps 713 mmHg 84%
    18:00 +6°C° 0.1 mm 5 mps 713 mmHg 83%
    19:00 +6°C° 0.1 mm 4 mps 713 mmHg 82%
    20:00 +5°C° 0 mm 5 mps 712 mmHg 80%
    21:00 +5°C° 0 mm 5 mps 712 mmHg 78%
    22:00 +4°C° 0 mm 6 mps 712 mmHg 76%
    23:00 +3°C° 0.4 mm 6 mps 712 mmHg 77%

    9 Diciembre, Lunes

    Tiempo Temperatura Precipitaciones Viento Presión Humedad
    00:00 +3°C° 0.4 mm 7 mps 711 mmHg 79%
    01:00 +3°C° 0.4 mm 7 mps 711 mmHg 81%
    02:00 +3°C° 0.3 mm 6 mps 710 mmHg 79%
    03:00 +3°C° 0.3 mm 6 mps 710 mmHg 78%
    04:00 +3°C° 0.3 mm 5 mps 709 mmHg 77%
    05:00 +3°C° 0.1 mm 6 mps 708 mmHg 78%
    06:00 +3°C° 0.1 mm 7 mps 708 mmHg 78%
    07:00 +1°C° 0.1 mm 8 mps 707 mmHg 79%
    08:00 +1°C° 0.3 mm 8 mps 707 mmHg 81%
    09:00 +2°C° 0.3 mm 7 mps 706 mmHg 83%
    10:00 +2°C° 0.3 mm 7 mps 706 mmHg 85%
    11:00 +2°C° 0.9 mm 7 mps 706 mmHg 82%
    12:00 +2°C° 0.9 mm 6 mps 706 mmHg 79%
    13:00 +3°C° 0.9 mm 6 mps 707 mmHg 76%
    14:00 +2°C° 0.1 mm 5 mps 707 mmHg 78%
    15:00 +2°C° 0.1 mm 5 mps 707 mmHg 80%
    16:00 +1°C° 0.1 mm 4 mps 707 mmHg 82%
    17:00 +1°C° 0.4 mm 4 mps 708 mmHg 84%
    18:00 +1°C° 0.4 mm 4 mps 708 mmHg 86%
    19:00 +1°C° 0.4 mm 4 mps 709 mmHg 89%
    20:00 +1°C° 0.4 mm 5 mps 709 mmHg 88%
    21:00 +1°C° 0.4 mm 5 mps 710 mmHg 88%
    22:00 +2°C° 0.4 mm 6 mps 711 mmHg 87%
    23:00 0°C° 0.2 mm 7 mps 712 mmHg 87%

    10 Diciembre, Martes

    Tiempo Temperatura Precipitaciones Viento Presión Humedad
    00:00 -1°C° 0.2 mm 7 mps 712 mmHg 88%
    01:00 -1°C° 0.2 mm 8 mps 713 mmHg 88%
    02:00 -1°C° 0.5 mm 8 mps 715 mmHg 82%
    03:00 -1°C° 0.5 mm 7 mps 716 mmHg 77%
    04:00 -1°C° 0.5 mm 7 mps 717 mmHg 71%
    05:00 -2°C° 0 mm 6 mps 718 mmHg 73%
    06:00 -2°C° 0 mm 6 mps 719 mmHg 74%
    07:00 -2°C° 0 mm 6 mps 720 mmHg 76%
    08:00 -1°C° 0 mm 5 mps 721 mmHg 76%
    09:00 -1°C° 0 mm 4 mps 722 mmHg 77%
    10:00 0°C° 0 mm 3 mps 723 mmHg 78%
    11:00 +1°C° 0 mm 3 mps 724 mmHg 75%
    12:00 +1°C° 0 mm 3 mps 724 mmHg 72%
    13:00 +2°C° 0 mm 3 mps 724 mmHg 69%
    14:00 +1°C° 0 mm 3 mps 724 mmHg 71%
    15:00 +1°C° 0 mm 3 mps 724 mmHg 73%
    16:00 +2°C° 0 mm 2 mps 724 mmHg 75%
    17:00 +1°C° 0 mm 2 mps 724 mmHg 78%
    18:00 +1°C° 0 mm 2 mps 723 mmHg 80%
    19:00 -1°C° 0 mm 3 mps 723 mmHg 82%
    20:00 -1°C° 0 mm 3 mps 722 mmHg 82%
    21:00 -1°C° 0 mm 4 mps 722 mmHg 82%
    22:00 -1°C° 0 mm 4 mps 721 mmHg 81%
    23:00 -1°C° 0.3 mm 4 mps 720 mmHg 81%

    11 Diciembre, Miércoles

    Tiempo Temperatura Precipitaciones Viento Presión Humedad
    00:00 -1°C° 0.3 mm 5 mps 719 mmHg 81%
    01:00 -1°C° 0.3 mm 5 mps 718 mmHg 80%
    02:00 -1°C° 0.1 mm 5 mps 718 mmHg 79%
    03:00 -1°C° 0.1 mm 4 mps 717 mmHg 78%
    04:00 0°C° 0.1 mm 4 mps 717 mmHg 77%
    05:00 0°C° 0.5 mm 4 mps 716 mmHg 82%
    06:00 +1°C° 0.5 mm 3 mps 716 mmHg 87%
    07:00 +1°C° 0.5 mm 3 mps 716 mmHg 91%
    08:00 +1°C° 0.6 mm 3 mps 716 mmHg 92%
    09:00 +1°C° 0.6 mm 3 mps 716 mmHg 93%
    10:00 +2°C° 0.6 mm 3 mps 716 mmHg 93%
    11:00 +1°C° 0 mm 4 mps 716 mmHg 86%
    12:00 +3°C° 0 mm 4 mps 716 mmHg 79%
    13:00 +3°C° 0 mm 5 mps 716 mmHg 71%
    14:00 +2°C° 0 mm 5 mps 716 mmHg 72%
    15:00 +2°C° 0 mm 5 mps 716 mmHg 73%
    16:00 +2°C° 0 mm 5 mps 716 mmHg 74%
    17:00 +1°C° 0 mm 5 mps 716 mmHg 75%
    18:00 +1°C° 0 mm 5 mps 715 mmHg 76%
    19:00 +1°C° 0 mm 6 mps 715 mmHg 77%
    20:00 +1°C° 0.1 mm 6 mps 714 mmHg 78%
    21:00 +1°C° 0.1 mm 6 mps 714 mmHg 80%
    22:00 +2°C° 0.1 mm 7 mps 713 mmHg 82%
    23:00 +2°C° 0.3 mm 7 mps 713 mmHg 82%
    Mostrar más